Location: Unspecified
(0.0000°N, 0.0000°E)
Time: 01:44:52
(UTC+00:00)

Tiros 1 - Pass Details

Date: 25 April 2026
Orbit: 618 x 648 km, 48.4° (Epoch: 15 May)

Event Time Altitude Azimuth Distance (km) Brightness Sun altitude
Exits shadow 03:47:45 32° 83° (E) 1,060 8.7 -31.6°
Drops below altitude 10° 03:50:35 10° 57° (ENE) 1,973 10.4 -30.9°
Sets 03:52:57 0° 51° (NE) 2,873 11.4 -30.4°
